Regional Weather Roundup
Issued by NWS

Home | Current Version | Previous Version | Text Only | Print | Product List | Glossary On
Versions: 1 2 3 4 5 6 7 8 9 10 11 12 13 14 15 16 17 18 19 20 21 22 23 24 25 26 27 28 29 30 31 32 33 34 35 36 37 38 39 40 41 42 43 44 45 46 47 48 49 50
000
ASUS44 KMEG 100010
RWRTN
TENNESSEE HOURLY STATE WEATHER ROUNDUP
NATIONAL WEATHER SERVICE MEMPHIS TN
700 PM CDT SUN AUG 09 2020

TNZ002-004-019-021-049-052-054-088>092-100100-
WEST TENNESSEE

CITY           SKY/WX    TMP DP  RH WIND       PRES   REMARKS
MEMPHIS INTL   PTCLDY    91  71  51 W7        30.05R HX  97
NWS MEMPHIS      N/A     93 N/A N/A MISG        N/A
JACKSON        CLEAR     90  70  51 W3        30.05S HX  95
DYERSBURG      CLEAR     89  76  65 CALM      30.05S HX 100
COVINGTON      PTCLDY    90  73  58 CALM      30.03S HX  98
UNION CITY     CLEAR     88  75  66 SW3       30.02S HX  97
BOLIVAR        CLEAR     90  73  58 CALM      30.04S HX  98
PARIS          CLEAR     88  79  74 CALM      30.05R HX 102
HUNTINGDON     CLEAR     88  75  66 CALM      30.04S HX  97
LEXINGTON      CLEAR     86  75  70 CALM      30.04F HX  95
SELMER         CLOUDY    88  77  70 CALM      30.05S HX 100
SAVANNAH       CLEAR     88  79  74 CALM      30.04S HX 102
$$

TNZ008-025-027-028-033-062-065-066-100100-
NORTH MIDDLE TENNESSEE

CITY           SKY/WX    TMP DP  RH WIND       PRES   REMARKS
NASHVILLE      MOCLDY    81  69  67 E7        30.07S
DICKSON        PTCLDY    86  73  66 CALM      30.06S HX  93
PORTLAND       MOCLDY    77  72  83 VRB3      30.08F HAZE
CLARKSVILLE    CLOUDY    81  77  88 N3        30.05F
LEBANON        PTCLDY    77  70  78 SW6       30.05S
SMYRNA         MOCLDY    82  72  71 NE5       30.08S
MURFREESBORO   PTCLDY    88  68  51 N12G18    30.05R HX  91
COOKEVILLE     CLEAR     84  68  58 CALM      30.08S
LIVINGSTON     CLEAR     81  72  74 CALM      30.10S
GALLATIN       MOCLDY    77  73  88 CALM      30.11R
CROSSVILLE     CLEAR     79  67  66 CALM      30.15F
ROCKWOOD       CLEAR     81  70  69 CALM      30.13R
$$

TNZ061-075-076-078-094-096-097-100100-
SOUTH MIDDLE TENNESSEE

CITY           SKY/WX    TMP DP  RH WIND       PRES   REMARKS
LAWRENCEBURG   PTCLDY    88  70  55 CALM      30.08S HX  92
LEWISBURG      CLEAR     88  68  51 SW3       30.06S HX  91
FAYETTEVILLE   CLEAR     88  68  51 W6        30.10S HX  91
TULLAHOMA      CLEAR     84  72  65 CALM      30.08S
WINCHESTER     PTCLDY    86  70  58 S9        30.08S HX  90
MCMINNVILLE    CLEAR     84  70  61 CALM      30.08S
SHELBYVILLE    PTCLDY    88  66  48 W6        30.07R HX  90
$$

TNZ017-018-042-046-047-100100-
NORTHEAST TENNESSEE

CITY           SKY/WX    TMP DP  RH WIND       PRES   REMARKS
TRI CITIES     PTCLDY    84  59  42 SW3       30.13S
ELIZABETHTON   CLEAR     75  68  78 CALM      30.13S
GREENEVILLE    CLEAR     79  64  61 CALM      30.13S
$$

TNZ012-013-036-069-073-074-100100-
CENTRAL EAST TENNESSEE

CITY           SKY/WX    TMP DP  RH WIND       PRES   REMARKS
KNOXVILLE      PTCLDY    89  59  36 W5        30.08S
OAK RIDGE      CLEAR     88  65  46 CALM      30.10S HX  90
DOWNTOWN KNOXV CLEAR     81  70  69 CALM      30.08S
GATLINBURG     CLEAR     88  61  40 N5        30.09R
MORRISTOWN     CLEAR     84  59  42 CALM      30.11R
JACKSBORO      CLEAR     82  70  65 CALM      30.13S
$$

TNZ083-085-099-100100-
SOUTHEAST TENNESSEE

CITY           SKY/WX    TMP DP  RH WIND       PRES   REMARKS
CHATTANOOGA    MOCLDY    91  68  46 SW3       30.08S HX  95
DAYTON         CLEAR     90  68  48 CALM      30.07R HX  93
$$

SKY/WX REPORTED AS FAIR MEANS FEW OR NO CLOUDS BELOW
12 THOUSAND FEET.





USA.gov is the U.S. government's official web portal to all federal, state and local government web resources and services.